[[{"header":{"parameterUnit":"m.s-1","parameterCategory":2,"la1":30.2991,"la2":30.254,"lo1":-89.0895,"lo2":-89.0444,"dy":0.0017,"dx":0.0017,"nx":28,"ny":28,"refTime":"2025-08-05T03:00:00:Z","depth":"0","parameterNumber":2,"parameterNumberName":"U-component_of_CURRENTS"},"data":[0,0,0,0,0,0,0,0,0,0,0,0,0,0,0,0,0,0,0,0,0,0,0,0,0,0,0,0,0,0,0,0,0,0,0,0,0,0,0,0,0,0,0,0,0,0,0,0,0,0,0,0,0,0,0,0,0,0,0.4097,0.4098,0,0.4164,0.4164,0.4164,0.4145,0.4144,0.4143,0.4142,0.416,0.4161,0.4162,0,0,0,0,0,0,0,0,0,0,0,0,0,0.3959,0.3962,0.4097,0.4098,0.41,0.4164,0.4164,0.4165,0.4145,0.4144,0.4143,0.4142,0.4159,0.4161,0.4162,0,0,0,0,0,0,0,0,0,0,0,0,0,0.4017,0.3962,0.4097,0.4101,0.4102,0.4164,0.4164,0.4165,0.4146,0.4144,0.4143,0.4141,0.4159,0.4161,0.4163,0.4203,0,0,0.4169,0.417,0,0,0,0,0,0,0,0,0.4014,0.4022,0.4099,0.4101,0.4103,0.4149,0.4122,0.4177,0.4146,0.4124,0.4142,0.4141,0.4156,0.4158,0.4167,0.4204,0.4205,0.4169,0.417,0.4171,0.4172,0,0,0,0,0,0,0,0.401,0.4019,0.4119,0.4101,0.4103,0.4102,0.4108,0.4132,0.4142,0.4126,0.4126,0.4141,0.4155,0.4166,0.4168,0.4205,0.4169,0.4171,0.4172,0.4173,0.4307,0.4309,0,0,0,0,0,0,0.4013,0.4016,0.4117,0.4121,0.4059,0.4106,0.4113,0.4132,0.4143,0.4146,0.4143,0.414,0.4163,0.4165,0.4168,0.426,0.4171,0.4173,0.4174,0.4305,0.4307,0.431,0,0,0,0,0,0,0.401,0.4022,0.4114,0.4073,0.4085,0.4111,0.4132,0.4134,0.4152,0.4157,0.4157,0.416,0.4162,0.4165,0.4207,0.4258,0.4174,0.4176,0.4302,0.4305,0.4309,0.4416,0,0,0,0,0,0,0.4006,0.402,0.4031,0.4074,0.4088,0.4168,0.4134,0.4136,0.4166,0.4164,0.4173,0.4172,0.4161,0.4204,0.4209,0.426,0.4177,0.4299,0.4303,0.4308,0.4409,0.4423,0.4434,0,0,0,0,0,0.4001,0.4025,0.4031,0.4043,0.4103,0.4171,0.4178,0.4187,0.4168,0.4194,0.4197,0.4172,0.4235,0.4208,0.4213,0.4266,0.4297,0.4302,0.4307,0.4404,0.442,0.4434,0,0,0,0,0,0,0.3968,0.4027,0.4034,0.4074,0.4127,0.4169,0.4189,0.42,0.4223,0.4215,0.4205,0.4207,0.4265,0.4252,0.4222,0.4317,0.4262,0.4268,0.4334,0.4349,0.4361,0.4354,0.4179,0,0,0,0,0,0.3969,0.4005,0.4063,0.4099,0.4122,0.4158,0.4183,0.4201,0.423,0.4238,0.4241,0.4253,0.4293,0.4307,0.4329,0.4383,0.4418,0.4419,0.4431,0.4442,0.444,0.4543,0.4565,0.4327,0.4327,0.4327,0,0,0.3971,0.4006,0.4027,0.4095,0.4126,0.4178,0.4169,0.4222,0.4259,0.4238,0.4274,0.4299,0.4318,0.4379,0.4404,0.4373,0.454,0.4448,0.4457,0.445,0.4551,0.4574,0.4595,0.4331,0.433,0.433,0,0,0.3991,0.402,0.4054,0.4103,0.4167,0.4199,0.422,0.4273,0.4287,0.4344,0.4343,0.4398,0.4434,0.4468,0.449,0.4584,0.4605,0.4594,0.4649,0.4751,0.4771,0.4789,0.4917,0.4946,0.4596,0.4596,0.4596,0,0.3983,0.4036,0.4077,0.4124,0.4167,0.4211,0.4263,0.4298,0.4356,0.4386,0.4364,0.4466,0.4479,0.4578,0.461,0.4614,0.4682,0.4593,0.4769,0.4787,0.4804,0.493,0.496,0.4602,0.4601,0.4601,0.46,0,0.4036,0.4075,0.4103,0.4175,0.423,0.4287,0.4349,0.4397,0.4419,0.4457,0.4549,0.458,0.4637,0.4668,0.4668,0.4801,0.482,0.4779,0.4732,0.4835,0.4961,0.4991,0.461,0.4608,0.4606,0.4605,0,0,0.402,0.4117,0.4123,0.4164,0.4261,0.4315,0.4391,0.4481,0.4547,0.4591,0.469,0.4749,0.4765,0.479,0.4812,0.49,0.5097,0.4894,0.4896,0.5024,0.5364,0.5258,0.528,0.5095,0.51,0.5103,0.5424,0,0.4043,0.4121,0.4174,0.4262,0.4314,0.4389,0.4462,0.4551,0.4623,0.4731,0.4784,0.4881,0.4812,0.4875,0.4944,0.5078,0.5171,0.5016,0.5241,0.5248,0.5143,0.5308,0.5103,0.5358,0.5452,0.5457,0.5461,0,0.4073,0.4125,0.4202,0.4312,0.4342,0.4405,0.4549,0.4625,0.478,0.4843,0.4934,0.4989,0.5136,0.506,0.5289,0.5201,0.5278,0.5359,0.5372,0.5245,0.5194,0.526,0.5408,0.5261,0.5506,0.5502,0.5499,0,0.4048,0.4144,0.4201,0.4242,0.4375,0.443,0.4507,0.4654,0.4746,0.4933,0.5043,0.5172,0.5298,0.5394,0.5505,0.5438,0.5774,0.5699,0.5675,0.5671,0.552,0.5492,0.5541,0.5849,0.5849,0.5848,0.5847,0,0.4064,0.4115,0.4189,0.4235,0.4329,0.4418,0.4547,0.4654,0.483,0.4979,0.5085,0.5242,0.539,0.5568,0.5618,0.5753,0.5856,0.5728,0.5751,0.5554,0.5527,0.5404,0.5349,0.586,0.5857,0.5855,0.5853,0,0.4064,0.4101,0.4184,0.4293,0.4326,0.4402,0.4568,0.4685,0.4833,0.505,0.5125,0.5379,0.5606,0.5725,0.5967,0.5918,0.5892,0.6048,0.5817,0.5802,0.5564,0.5523,0.5432,0.527,0.6099,0.6098,0.6097,0,0.4086,0.4121,0.4216,0.4283,0.434,0.4446,0.4546,0.4682,0.481,0.5121,0.5244,0.5526,0.5688,0.5988,0.6001,0.6103,0.5906,0.5952,0.5737,0.5559,0.5534,0.5311,0.5164,0.5634,0.5629,0.5626,0.5623,0,0.4162,0.4179,0.4258,0.4358,0.4451,0.4526,0.4658,0.473,0.4924,0.5089,0.5327,0.548,0.5755,0.5778,0.5898,0.5913,0.5658,0.5877,0.5764,0.5235,0.493,0.478,0.5446,0.5592,0.5595,0.5597,0.5599,0.56,0.424,0.4293,0.438,0.4467,0.455,0.4582,0.4592,0.4728,0.4852,0.5021,0.5267,0.5396,0.555,0.5672,0.5656,0.5476,0.5444,0.5306,0.5309,0.5127,0.4818,0.5411,0.5504,0.5506,0.5509,0.5511,0.5512,0,0.4338,0.4389,0.4495,0.4552,0.4582,0.4604,0.466,0.4617,0.4667,0.4884,0.502,0.5111,0.5158,0.5212,0.5137,0.4944,0.4706,0.4816,0.4473,0.4383,0.5005,0.4823,0.4681,0.4681,0.4682,0.4682,0.4682,0.4682,0.441,0.45,0.4512,0.4545,0.4557,0.4481,0.444,0.4389,0.4446,0.4446,0.4463,0.4557,0.4739,0.4887,0.4702,0.4581,0.4224,0.405,0.4036,0.4501,0.4545,0.4586,0.44,0.4171,0.4171,0.3195,0.3188,0.3183]},{"header":{"parameterUnit":"m.s-1","parameterCategory":2,"la1":30.2991,"la2":30.254,"lo1":-89.0895,"lo2":-89.0444,"dy":0.0017,"dx":0.0017,"nx":28,"ny":28,"refTime":"2025-08-05T03:00:00:Z","depth":"0","parameterNumber":3,"parameterNumberName":"V-component_of_CURRENTS"},"data":[0,0,0,0,0,0,0,0,0,0,0,0,0,0,0,0,0,0,0,0,0,0,0,0,0,0,0,0,0,0,0,0,0,0,0,0,0,0,0,0,0,0,0,0,0,0,0,0,0,0,0,0,0,0,0,0,0,0,0.0088,0.0087,0,0.0002,0.0001,0.0,-0.0054,-0.0054,-0.0054,-0.0054,-0.0179,-0.0182,-0.0185,0,0,0,0,0,0,0,0,0,0,0,0,0,0.0133,0.0133,0.0088,0.0087,0.0086,0.0003,0.0001,-0.0,-0.0054,-0.0054,-0.0054,-0.0054,-0.0178,-0.0182,-0.0186,0,0,0,0,0,0,0,0,0,0,0,0,0,0.0085,0.0133,0.0088,0.0051,0.0047,0.0003,0.0001,-0.0,-0.0054,-0.0054,-0.0054,-0.0054,-0.0177,-0.0181,-0.0186,-0.0212,0,0,-0.0201,-0.0203,0,0,0,0,0,0,0,0,0.0088,0.0084,0.0057,0.0053,0.0049,-0.0013,-0.0029,-0.0073,-0.0053,-0.0018,-0.0054,-0.0054,-0.0126,-0.0135,-0.0153,-0.0218,-0.0223,-0.0201,-0.0204,-0.0206,-0.0208,0,0,0,0,0,0,0,0.0092,0.0087,0.0052,0.0056,0.0051,0.0014,0.0007,-0.0038,-0.0072,-0.0021,-0.0024,-0.0031,-0.0129,-0.0148,-0.0156,-0.0225,-0.0201,-0.0206,-0.0208,-0.021,-0.0333,-0.0334,0,0,0,0,0,0,0.011,0.009,0.0055,0.005,0.0071,0.0014,0.0006,0.0005,-0.0071,-0.0082,-0.003,-0.0033,-0.014,-0.0151,-0.0161,-0.0189,-0.0206,-0.0211,-0.0214,-0.0333,-0.0333,-0.0334,0,0,0,0,0,0,0.0112,0.0108,0.0058,0.0069,0.006,0.0014,0.0012,0.0004,-0.0012,-0.0077,-0.0089,-0.0036,-0.014,-0.0154,-0.0192,-0.0194,-0.0213,-0.0217,-0.0333,-0.0333,-0.0334,-0.0249,0,0,0,0,0,0,0.0113,0.0109,0.0112,0.0071,0.0061,0.0046,0.0013,0.0002,-0.0015,-0.0019,-0.0086,-0.0098,-0.0141,-0.0184,-0.0196,-0.0201,-0.0221,-0.0332,-0.0333,-0.0333,-0.0252,-0.0247,-0.0243,0,0,0,0,0,0.0115,0.0128,0.0113,0.0109,0.0068,0.0047,0.0039,0.0003,-0.0014,-0.0014,-0.006,-0.0096,-0.0198,-0.0188,-0.0202,-0.0209,-0.0332,-0.0333,-0.0333,-0.0254,-0.0248,-0.0243,0,0,0,0,0,0,0.0146,0.0122,0.0106,0.0109,0.0085,0.0039,0.0036,0.001,-0.0027,-0.003,-0.0095,-0.011,-0.0147,-0.019,-0.0177,-0.0249,-0.0274,-0.0277,-0.0208,-0.0203,-0.0199,-0.0142,-0.0225,0,0,0,0,0,0.0156,0.0159,0.0128,0.0129,0.0123,0.008,0.0065,0.0045,0.0008,-0.0009,-0.0058,-0.0114,-0.0164,-0.0189,-0.0239,-0.0272,-0.0262,-0.0289,-0.0285,-0.0281,-0.0246,-0.0242,-0.0233,-0.0337,-0.0337,-0.0337,0,0,0.0169,0.0155,0.0156,0.0136,0.0113,0.0116,0.0071,0.0062,0.006,-0.0017,-0.0038,-0.0098,-0.017,-0.0207,-0.0229,-0.0241,-0.0244,-0.0282,-0.0277,-0.0244,-0.0242,-0.0231,-0.0222,-0.0337,-0.0337,-0.0337,0,0,0.0203,0.0185,0.0203,0.019,0.0169,0.0145,0.0148,0.0108,0.0089,0.0062,0.0001,-0.0051,-0.0125,-0.0176,-0.0212,-0.0213,-0.0221,-0.024,-0.0171,-0.0169,-0.0159,-0.015,-0.0103,-0.0091,-0.0239,-0.0238,-0.0238,0,0.0218,0.0236,0.0204,0.0218,0.0217,0.0166,0.0188,0.016,0.0111,0.0109,0.007,-0.0028,-0.0107,-0.0141,-0.0153,-0.0201,-0.0176,-0.0183,-0.0158,-0.0149,-0.0142,-0.0096,-0.0083,-0.0234,-0.0235,-0.0235,-0.0236,0,0.0268,0.028,0.029,0.0293,0.0286,0.0296,0.0263,0.0253,0.0219,0.0193,0.0159,0.0057,0.0006,-0.0047,-0.0104,-0.0102,-0.0091,-0.0149,-0.0158,-0.0125,-0.008,-0.0068,-0.0229,-0.023,-0.0231,-0.0232,0,0,0.0312,0.0325,0.033,0.0357,0.0331,0.0344,0.034,0.0339,0.0373,0.0293,0.0331,0.0193,0.015,0.0106,0.0018,0.0004,0.0052,-0.0038,-0.004,0.0034,0.0114,0.0087,0.0097,0.001,0.0012,0.0014,0.0133,0,0.0362,0.0423,0.0404,0.046,0.0494,0.0453,0.0469,0.046,0.0439,0.0462,0.036,0.0357,0.0204,0.0199,0.0147,0.0089,0.0084,0.0029,0.0049,0.0051,0.0043,0.0109,0.0071,0.0171,0.0144,0.0146,0.0148,0,0.0421,0.0459,0.0531,0.0578,0.0591,0.0618,0.0663,0.0671,0.0671,0.0662,0.0621,0.0562,0.0512,0.0389,0.0311,0.0293,0.0216,0.0163,0.0164,0.0125,0.0045,0.0125,0.0192,-0.0083,0.0165,0.0164,0.0163,0,0.05,0.0549,0.0621,0.0633,0.0673,0.071,0.0733,0.0745,0.0802,0.0817,0.0889,0.0778,0.0808,0.0658,0.0507,0.0431,0.0468,0.0338,0.0248,0.0247,0.0212,0.0204,0.0037,0.0307,0.0306,0.0306,0.0306,0,0.0569,0.0631,0.0677,0.0724,0.0837,0.0821,0.0942,0.0949,0.1011,0.1144,0.1015,0.1128,0.0888,0.0858,0.0638,0.0515,0.0564,0.0306,0.0281,0.0239,0.0233,-0.0014,-0.0176,0.0311,0.031,0.0309,0.0308,0,0.0657,0.0674,0.0775,0.0846,0.0884,0.0973,0.1097,0.1193,0.1235,0.1416,0.145,0.1456,0.143,0.1185,0.1022,0.0756,0.0434,0.0527,0.0519,0.0488,0.0069,-0.0085,-0.0223,-0.0348,0.0432,0.0432,0.0432,0,0.0714,0.0774,0.0888,0.097,0.1016,0.1142,0.1246,0.1304,0.143,0.1642,0.1767,0.1821,0.1892,0.1634,0.1194,0.0847,0.054,0.0554,0.0348,0.0081,-0.0109,-0.023,-0.0334,0.0353,0.0352,0.0352,0.0351,0,0.0835,0.087,0.0957,0.1116,0.1243,0.1387,0.1547,0.1681,0.181,0.2004,0.2279,0.2373,0.2153,0.1814,0.1312,0.1014,0.0321,0.0531,0.025,-0.0174,-0.0306,-0.0449,0.0266,0.0347,0.0348,0.0348,0.0348,0.0348,0.0936,0.1015,0.1122,0.1272,0.1425,0.1616,0.1761,0.197,0.2229,0.2557,0.2649,0.2866,0.2306,0.1627,0.1199,0.0329,0.0331,0.0012,-0.0137,-0.022,-0.0409,0.032,0.0354,0.0354,0.0355,0.0355,0.0355,0,0.1042,0.1123,0.1272,0.1451,0.1628,0.168,0.1953,0.2128,0.2471,0.2832,0.3097,0.2952,0.2239,0.1478,0.0314,-0.0259,-0.0497,-0.0576,-0.0791,-0.0858,-0.0205,-0.0284,-0.038,-0.038,-0.038,-0.038,-0.0379,-0.0379,0.1109,0.124,0.1298,0.158,0.172,0.1965,0.2121,0.2419,0.2706,0.3141,0.332,0.3418,0.2742,0.0737,-0.0603,-0.0894,-0.1328,-0.1403,-0.1577,-0.1199,-0.1157,-0.1118,-0.1232,-0.1526,-0.1528,-0.219,-0.2197,-0.2202]}],[{"header":{"parameterUnit":"m.s-1","parameterCategory":2,"la1":30.2991,"la2":30.254,"lo1":-89.0895,"lo2":-89.0444,"dy":0.0017,"dx":0.0017,"nx":28,"ny":28,"refTime":"2025-08-05T03:00:00:Z","depth":"2","parameterNumber":2,"parameterNumberName":"U-component_of_CURRENTS"},"data":[0,0,0,0,0,0,0,0,0,0,0,0,0,0,0,0,0,0,0,0,0,0,0,0,0,0,0,0,0,0,0,0,0,0,0,0,0,0,0,0,0,0,0,0,0,0,0,0,0,0,0,0,0,0,0,0,0,0,0.3035,0.3037,0,0.313,0.313,0.313,0.3139,0.3139,0.3139,0.3139,0.3125,0.3125,0.3125,0,0,0,0,0,0,0,0,0,0,0,0,0,0.2916,0.2917,0.3035,0.3037,0.3039,0.313,0.313,0.313,0.3139,0.3139,0.3139,0.3139,0.3125,0.3125,0.3125,0,0,0,0,0,0,0,0,0,0,0,0,0,0.2976,0.2917,0.3035,0.3061,0.3065,0.3129,0.313,0.3131,0.3139,0.3139,0.3139,0.3139,0.3125,0.3125,0.3125,0.3128,0,0,0.3124,0.3124,0,0,0,0,0,0,0,0,0.2973,0.2979,0.3055,0.3059,0.3064,0.313,0.3084,0.3128,0.3139,0.3102,0.3139,0.3139,0.3123,0.3123,0.313,0.3128,0.3127,0.3124,0.3124,0.3124,0.3124,0,0,0,0,0,0,0,0.2968,0.2976,0.3063,0.3057,0.3063,0.3087,0.3094,0.3092,0.3104,0.3105,0.3108,0.3133,0.3123,0.313,0.313,0.3127,0.3124,0.3124,0.3124,0.3123,0.3223,0.3226,0,0,0,0,0,0,0.2972,0.2972,0.3061,0.3067,0.3027,0.309,0.3097,0.3102,0.3106,0.311,0.3133,0.3133,0.3131,0.313,0.3129,0.3187,0.3124,0.3123,0.3123,0.322,0.3223,0.3227,0,0,0,0,0,0,0.2969,0.2978,0.3057,0.303,0.3043,0.3093,0.3098,0.3104,0.3111,0.313,0.313,0.3135,0.3131,0.313,0.3149,0.3185,0.3123,0.3123,0.3217,0.3221,0.3225,0.3269,0,0,0,0,0,0,0.2964,0.2976,0.2986,0.3029,0.3045,0.3094,0.3099,0.3107,0.3132,0.3132,0.3132,0.3131,0.313,0.315,0.3149,0.3183,0.3123,0.3213,0.3219,0.3224,0.3264,0.3274,0.3283,0,0,0,0,0,0.2959,0.2976,0.2985,0.2997,0.3054,0.3095,0.3103,0.3133,0.3132,0.3136,0.3152,0.3131,0.3183,0.3151,0.3149,0.3184,0.3211,0.3217,0.3223,0.326,0.3272,0.3283,0,0,0,0,0,0,0.293,0.2981,0.2991,0.3022,0.3056,0.31,0.3125,0.3132,0.3148,0.3161,0.3149,0.315,0.3192,0.3184,0.3148,0.3236,0.32,0.3207,0.3229,0.324,0.325,0.3289,0.3123,0,0,0,0,0,0.293,0.2955,0.2999,0.3025,0.3045,0.308,0.3103,0.3128,0.3154,0.316,0.3174,0.3197,0.3218,0.3222,0.3249,0.3273,0.3307,0.3305,0.3314,0.3322,0.3358,0.343,0.3449,0.3247,0.3247,0.3247,0,0,0.2931,0.2963,0.2978,0.3022,0.3054,0.309,0.309,0.3141,0.3177,0.3157,0.3212,0.3229,0.3236,0.3286,0.3303,0.3277,0.34,0.333,0.3336,0.3369,0.3439,0.3458,0.3476,0.3252,0.3251,0.325,0,0,0.2946,0.2967,0.2994,0.3023,0.3086,0.3112,0.3122,0.318,0.3209,0.3257,0.3271,0.3316,0.3332,0.3369,0.3376,0.3453,0.3454,0.3456,0.352,0.3589,0.3606,0.3621,0.3693,0.3714,0.3451,0.3451,0.3451,0,0.2951,0.2979,0.3008,0.3042,0.3081,0.3116,0.3156,0.3191,0.3255,0.3295,0.3285,0.3384,0.3382,0.345,0.3488,0.3474,0.3514,0.3463,0.36,0.3616,0.3631,0.37,0.3723,0.3454,0.3453,0.3453,0.3453,0,0.2979,0.301,0.3031,0.3083,0.3123,0.3167,0.3227,0.3283,0.3322,0.3363,0.3457,0.3485,0.3545,0.3551,0.3536,0.3648,0.3644,0.3605,0.3563,0.3653,0.3721,0.3745,0.3458,0.3457,0.3456,0.3455,0,0,0.2968,0.3037,0.3044,0.3077,0.3152,0.3189,0.3271,0.3351,0.3413,0.3485,0.3577,0.3631,0.3667,0.3685,0.369,0.3749,0.3879,0.3727,0.373,0.3787,0.4047,0.3922,0.3935,0.3856,0.386,0.3863,0.4052,0,0.2981,0.3041,0.308,0.3147,0.3184,0.3256,0.3322,0.341,0.348,0.3584,0.3651,0.3736,0.3706,0.3755,0.3812,0.3877,0.3943,0.3833,0.3963,0.3968,0.3836,0.3958,0.3656,0.3788,0.4074,0.4078,0.4081,0,0.2989,0.3033,0.3096,0.3187,0.3212,0.3262,0.3393,0.3464,0.3608,0.3681,0.3789,0.3838,0.3973,0.3921,0.4087,0.4018,0.4053,0.4085,0.4091,0.3982,0.3887,0.3747,0.3819,0.4119,0.4116,0.4113,0.4111,0,0.2957,0.3041,0.3092,0.3122,0.3231,0.3292,0.3362,0.3495,0.3584,0.3765,0.3849,0.399,0.4102,0.4168,0.4228,0.418,0.4395,0.4324,0.4249,0.424,0.4016,0.3979,0.4447,0.4446,0.4446,0.4445,0.4445,0,0.2949,0.2991,0.3082,0.3111,0.3197,0.3283,0.3394,0.3501,0.3665,0.377,0.3898,0.4008,0.4173,0.4287,0.4305,0.4362,0.4459,0.4311,0.4294,0.4022,0.3985,0.4288,0.4267,0.4452,0.4451,0.445,0.4448,0,0.2915,0.2963,0.303,0.3142,0.3183,0.3252,0.3411,0.3481,0.3652,0.3807,0.388,0.4103,0.4257,0.4363,0.452,0.4468,0.4518,0.4498,0.4174,0.4114,0.4304,0.4284,0.4468,0.4466,0.4464,0.4462,0.446,0,0.2913,0.2934,0.3044,0.3067,0.3118,0.3226,0.3288,0.3475,0.3549,0.3823,0.388,0.4122,0.4218,0.4412,0.4417,0.4464,0.4515,0.4178,0.4018,0.4349,0.4315,0.4297,0.428,0.3755,0.3747,0.3742,0.3737,0,0.2895,0.2923,0.2966,0.3008,0.3065,0.3143,0.3243,0.3303,0.3509,0.3632,0.3791,0.3907,0.4139,0.4079,0.417,0.4133,0.4144,0.4058,0.4527,0.377,0.3683,0.3646,0.3652,0.3685,0.369,0.3694,0.3697,0.3699,0.286,0.2877,0.2891,0.2917,0.297,0.2988,0.2998,0.3089,0.3181,0.331,0.3557,0.3637,0.3783,0.3764,0.3673,0.363,0.3895,0.3721,0.3736,0.3759,0.3617,0.3528,0.3476,0.348,0.3483,0.3486,0.3489,0,0.2772,0.2758,0.2784,0.2788,0.2762,0.2861,0.2896,0.285,0.2845,0.3062,0.3177,0.304,0.306,0.3191,0.3056,0.3064,0.301,0.2935,0.2841,0.2898,0.2948,0.276,0.2395,0.2391,0.2387,0.2383,0,0,0.2713,0.2657,0.2654,0.2537,0.2563,0.2493,0.2474,0.2437,0.2504,0.25,0.2582,0.2915,0.3106,0.2696,0.267,0.2504,0.2665,0.2412,0.3306,0.3254,0.3298,0.3439,0.322,0,0,0,0,0]},{"header":{"parameterUnit":"m.s-1","parameterCategory":2,"la1":30.2991,"la2":30.254,"lo1":-89.0895,"lo2":-89.0444,"dy":0.0017,"dx":0.0017,"nx":28,"ny":28,"refTime":"2025-08-05T03:00:00:Z","depth":"2","parameterNumber":3,"parameterNumberName":"V-component_of_CURRENTS"},"data":[0,0,0,0,0,0,0,0,0,0,0,0,0,0,0,0,0,0,0,0,0,0,0,0,0,0,0,0,0,0,0,0,0,0,0,0,0,0,0,0,0,0,0,0,0,0,0,0,0,0,0,0,0,0,0,0,0,0,0.0098,0.0097,0,0.0024,0.0023,0.0022,-0.0035,-0.0036,-0.0036,-0.0036,-0.0126,-0.0128,-0.013,0,0,0,0,0,0,0,0,0,0,0,0,0,0.0114,0.0114,0.0098,0.0097,0.0097,0.0024,0.0023,0.0021,-0.0035,-0.0036,-0.0036,-0.0037,-0.0125,-0.0128,-0.013,0,0,0,0,0,0,0,0,0,0,0,0,0,0.0078,0.0114,0.0098,0.0061,0.0057,0.0024,0.0023,0.0021,-0.0035,-0.0036,-0.0036,-0.0037,-0.0124,-0.0127,-0.0131,-0.014,0,0,-0.014,-0.0141,0,0,0,0,0,0,0,0,0.008,0.0077,0.0067,0.0064,0.0059,0.0005,-0.0005,-0.0033,-0.0035,-0.0003,-0.0036,-0.0037,-0.0082,-0.0088,-0.0104,-0.0144,-0.0148,-0.014,-0.0142,-0.0144,-0.0145,0,0,0,0,0,0,0,0.0083,0.008,0.0066,0.0067,0.0062,0.0022,0.0017,-0.0011,-0.0041,-0.0005,-0.0009,-0.0014,-0.0084,-0.0101,-0.0107,-0.0149,-0.014,-0.0143,-0.0145,-0.0146,-0.0218,-0.0218,0,0,0,0,0,0,0.0102,0.0083,0.0069,0.0064,0.0071,0.0023,0.0017,0.0021,-0.004,-0.0049,-0.0013,-0.0016,-0.0096,-0.0103,-0.011,-0.0111,-0.0144,-0.0147,-0.0148,-0.0218,-0.0218,-0.0218,0,0,0,0,0,0,0.0102,0.0101,0.0072,0.0073,0.0067,0.0024,0.0028,0.002,0.0007,-0.0045,-0.0055,-0.0017,-0.0096,-0.0106,-0.0128,-0.0115,-0.0148,-0.0151,-0.0218,-0.0218,-0.0218,-0.0122,0,0,0,0,0,0,0.0103,0.0102,0.0107,0.0075,0.0067,0.0067,0.0029,0.0019,0.0006,0.0001,-0.0052,-0.0061,-0.0097,-0.0123,-0.0131,-0.012,-0.0153,-0.0218,-0.0218,-0.0218,-0.0125,-0.0118,-0.0113,0,0,0,0,0,0.0104,0.0124,0.0108,0.0106,0.0078,0.0068,0.0061,0.0026,0.0006,0.001,-0.003,-0.0059,-0.013,-0.0125,-0.0135,-0.0125,-0.0217,-0.0218,-0.0218,-0.0127,-0.012,-0.0113,0,0,0,0,0,0,0.0132,0.0119,0.0101,0.0115,0.0097,0.006,0.0059,0.0035,0.0005,0.0,-0.0053,-0.0065,-0.0082,-0.0119,-0.0112,-0.0149,-0.0181,-0.0183,-0.0109,-0.0102,-0.0097,-0.0072,-0.0156,0,0,0,0,0,0.0142,0.0153,0.013,0.0139,0.0135,0.0097,0.0086,0.0067,0.0038,0.0024,-0.0015,-0.0059,-0.0091,-0.0107,-0.0143,-0.0155,-0.019,-0.016,-0.0154,-0.0148,-0.0137,-0.0176,-0.0172,-0.0218,-0.0218,-0.0218,0,0,0.0156,0.0149,0.0154,0.0145,0.0126,0.0136,0.0089,0.0086,0.0091,0.002,0.001,-0.0037,-0.0091,-0.0108,-0.012,-0.0134,-0.0155,-0.0148,-0.0143,-0.0135,-0.0176,-0.0171,-0.0167,-0.0218,-0.0218,-0.0218,0,0,0.0196,0.0184,0.0208,0.02,0.0185,0.0167,0.0173,0.0141,0.0123,0.0108,0.0056,0.0021,-0.003,-0.0065,-0.0089,-0.0073,-0.0122,-0.009,-0.0037,-0.0074,-0.007,-0.0067,-0.0103,-0.0104,-0.0086,-0.0086,-0.0086,0,0.021,0.0239,0.0212,0.0231,0.0236,0.019,0.022,0.0196,0.0159,0.0151,0.0118,0.0038,-0.0009,-0.0028,-0.0027,-0.0057,-0.0087,-0.0054,-0.0064,-0.0061,-0.006,-0.0098,-0.01,-0.0081,-0.0082,-0.0082,-0.0082,0,0.027,0.0288,0.0302,0.0315,0.0317,0.0334,0.0309,0.0299,0.0267,0.0239,0.0206,0.0132,0.0089,0.006,0.0021,0.001,-0.0018,-0.0049,-0.0073,-0.0049,-0.0091,-0.0095,-0.0074,-0.0076,-0.0077,-0.0079,0,0,0.0312,0.0341,0.0344,0.0371,0.0366,0.0381,0.0388,0.0387,0.0401,0.0334,0.0341,0.0259,0.0212,0.018,0.0119,0.0078,0.0056,0.0027,0.0022,0.0006,-0.0024,-0.007,-0.008,0.0027,0.0026,0.0026,-0.0056,0,0.0365,0.0432,0.0427,0.0489,0.0525,0.0494,0.0509,0.0498,0.0471,0.0462,0.0371,0.0349,0.026,0.0243,0.0188,0.0098,0.005,0.0082,-0.0059,-0.0063,-0.0095,-0.0084,-0.0049,-0.0122,-0.006,-0.0061,-0.0062,0,0.0422,0.0464,0.0539,0.059,0.0603,0.0627,0.0655,0.0667,0.0634,0.0612,0.0563,0.049,0.0423,0.034,0.0194,0.022,0.0108,0.0022,0.0017,-0.0061,-0.0117,-0.014,-0.0132,-0.0069,-0.0068,-0.0068,-0.0067,0,0.0477,0.0542,0.0611,0.0626,0.0671,0.0695,0.0717,0.071,0.0745,0.0713,0.0726,0.0618,0.0586,0.0428,0.0238,0.0223,0.0072,0.0027,-0.0126,-0.0131,-0.0146,-0.0152,-0.0084,-0.0084,-0.0084,-0.0083,-0.0083,0,0.0539,0.0593,0.0643,0.068,0.0769,0.0769,0.0851,0.085,0.0873,0.0936,0.0814,0.0826,0.0607,0.0485,0.029,0.0077,0.0108,-0.0112,-0.0154,-0.0114,-0.0116,-0.0108,-0.011,-0.0086,-0.0086,-0.0085,-0.0085,0,0.0589,0.0617,0.0704,0.0769,0.0797,0.0862,0.0957,0.1019,0.1019,0.1097,0.1095,0.1002,0.0846,0.0601,0.0359,0.0166,-0.005,-0.0141,-0.0081,-0.0115,-0.0242,-0.0238,-0.0311,-0.0313,-0.0315,-0.0317,-0.0318,0,0.0623,0.067,0.0774,0.0835,0.0869,0.0966,0.1041,0.109,0.1171,0.1207,0.1258,0.1132,0.1056,0.0673,0.0321,-0.0026,-0.0069,-0.0231,-0.0269,-0.0232,-0.0265,-0.0258,-0.0251,-0.025,-0.0251,-0.0252,-0.0252,0,0.0686,0.0714,0.0788,0.0916,0.101,0.1142,0.1254,0.1344,0.1412,0.1461,0.151,0.1446,0.1091,0.0752,0.027,0.003,-0.0175,-0.0255,-0.0221,-0.0202,-0.0183,-0.0213,-0.0207,-0.0257,-0.0257,-0.0256,-0.0256,-0.0256,0.0725,0.0788,0.0877,0.1006,0.1127,0.1298,0.1422,0.1537,0.1672,0.1761,0.1698,0.1617,0.1222,0.0617,0.02,-0.0223,-0.0213,-0.0364,-0.0358,-0.0353,-0.0335,-0.0321,-0.0417,-0.0418,-0.0418,-0.0418,-0.0418,0,0.0774,0.0848,0.0963,0.1127,0.1278,0.134,0.1553,0.1667,0.1827,0.1892,0.1907,0.1534,0.1131,0.069,0.0059,-0.0338,-0.0355,-0.0456,-0.0382,-0.0374,-0.0369,-0.0348,-0.0436,-0.0437,-0.0438,-0.0439,0,0,0.0801,0.091,0.0976,0.1223,0.1352,0.1578,0.1715,0.1858,0.1953,0.1995,0.1959,0.184,0.129,0.0833,0.0294,-0.0059,-0.0122,-0.0133,-0.0079,0.0079,0.009,-0.0281,-0.0239,0,0,0,0,0]}],[{"header":{"parameterUnit":"m.s-1","parameterCategory":2,"la1":30.2991,"la2":30.254,"lo1":-89.0895,"lo2":-89.0444,"dy":0.0017,"dx":0.0017,"nx":28,"ny":28,"refTime":"2025-08-05T03:00:00:Z","depth":"4","parameterNumber":2,"parameterNumberName":"U-component_of_CURRENTS"},"data":[0,0,0,0,0,0,0,0,0,0,0,0,0,0,0,0,0,0,0,0,0,0,0,0,0,0,0,0,0,0,0,0,0,0,0,0,0,0,0,0,0,0,0,0,0,0,0,0,0,0,0,0,0,0,0,0,0,0,0.1842,0.1843,0,0.1918,0.1919,0.192,0.1997,0.1998,0.1999,0.2,0.2078,0.2079,0.2081,0,0,0,0,0,0,0,0,0,0,0,0,0,0.1756,0.1757,0.1842,0.1843,0.1844,0.1918,0.1919,0.192,0.1996,0.1998,0.1999,0.2,0.2078,0.2079,0.2081,0,0,0,0,0,0,0,0,0,0,0,0,0,0.1808,0.1757,0.1842,0.1891,0.1897,0.1918,0.1919,0.192,0.1996,0.1998,0.1999,0.2001,0.2078,0.2079,0.2081,0.2058,0,0,0.2086,0.2086,0,0,0,0,0,0,0,0,0.1805,0.1811,0.1883,0.1888,0.1894,0.195,0.1918,0.1967,0.1996,0.1958,0.2,0.2002,0.2035,0.204,0.205,0.2062,0.2065,0.2086,0.2087,0.2088,0.2088,0,0,0,0,0,0,0,0.1801,0.1808,0.1871,0.1884,0.1891,0.1908,0.1917,0.1927,0.1986,0.1961,0.1967,0.1976,0.2038,0.2048,0.2052,0.2066,0.2086,0.2087,0.2088,0.2089,0.2191,0.2192,0,0,0,0,0,0,0.1792,0.1805,0.1869,0.1874,0.1853,0.1908,0.1919,0.193,0.1986,0.1996,0.1975,0.1979,0.2045,0.205,0.2055,0.2147,0.2088,0.2089,0.209,0.2189,0.2191,0.2193,0,0,0,0,0,0,0.179,0.1797,0.1866,0.1841,0.1852,0.1908,0.192,0.1931,0.1986,0.1996,0.2007,0.2024,0.2046,0.2053,0.2111,0.2146,0.209,0.2091,0.2187,0.219,0.2192,0.2256,0,0,0,0,0,0,0.1787,0.1796,0.182,0.1841,0.1853,0.1908,0.1919,0.1931,0.1986,0.1995,0.2041,0.2048,0.2048,0.2109,0.2113,0.2148,0.2093,0.2185,0.2188,0.2191,0.2252,0.2261,0.2268,0,0,0,0,0,0.1784,0.1803,0.182,0.1829,0.1878,0.191,0.1919,0.1962,0.1987,0.2017,0.2056,0.2049,0.2132,0.2112,0.2116,0.2152,0.2183,0.2187,0.2191,0.2248,0.2259,0.2268,0,0,0,0,0,0,0.1779,0.1813,0.1833,0.1863,0.1899,0.1924,0.1959,0.1984,0.2038,0.2056,0.207,0.208,0.2143,0.2139,0.2116,0.2191,0.2156,0.2161,0.2198,0.2208,0.2216,0.2226,0.2094,0,0,0,0,0,0.1787,0.1815,0.1846,0.1876,0.1897,0.1935,0.1962,0.1989,0.2027,0.2055,0.209,0.2123,0.2153,0.2177,0.2199,0.2237,0.2255,0.2264,0.2272,0.2279,0.229,0.2358,0.2374,0.2206,0.2206,0.2206,0,0,0.1794,0.1817,0.1835,0.1879,0.1912,0.1943,0.1958,0.2005,0.2044,0.2051,0.213,0.2156,0.2171,0.2222,0.2249,0.2229,0.2336,0.2284,0.229,0.2298,0.2364,0.238,0.2395,0.2208,0.2208,0.2207,0,0,0.1806,0.1845,0.187,0.1902,0.1954,0.1974,0.1997,0.2047,0.209,0.2151,0.2172,0.2228,0.227,0.2296,0.2308,0.2374,0.2379,0.238,0.2429,0.2495,0.251,0.2523,0.2566,0.2583,0.2382,0.2383,0.2383,0,0.1815,0.1849,0.1884,0.1916,0.1947,0.1993,0.2025,0.2068,0.2135,0.2178,0.2188,0.2288,0.2304,0.2368,0.2396,0.2394,0.2426,0.2389,0.2507,0.252,0.2532,0.2574,0.2591,0.2386,0.2386,0.2385,0.2385,0,0.1834,0.1878,0.1898,0.1952,0.1991,0.2028,0.2081,0.2141,0.2195,0.2237,0.2333,0.2367,0.2432,0.2441,0.244,0.2533,0.2527,0.2511,0.2481,0.2553,0.2592,0.2609,0.2391,0.239,0.2389,0.2388,0,0,0.1803,0.1893,0.1905,0.1943,0.2014,0.2044,0.2118,0.2194,0.2262,0.2333,0.2421,0.2482,0.2524,0.2543,0.2557,0.2608,0.2721,0.2604,0.2606,0.2647,0.2867,0.2677,0.2677,0.2734,0.2737,0.274,0.286,0,0.181,0.1871,0.1917,0.1986,0.202,0.2091,0.2157,0.2237,0.2315,0.2414,0.2474,0.2564,0.2555,0.2607,0.266,0.2711,0.277,0.269,0.2792,0.2795,0.2617,0.2691,0.2751,0.2872,0.2876,0.2879,0.2881,0,0.1804,0.185,0.1915,0.2013,0.2038,0.2094,0.2217,0.2284,0.2419,0.2487,0.2589,0.2646,0.2752,0.2728,0.2863,0.2819,0.286,0.2883,0.2888,0.2699,0.2635,0.2786,0.2911,0.2909,0.2906,0.2904,0.2902,0,0.1751,0.1846,0.1902,0.1934,0.2049,0.2113,0.2189,0.2319,0.2397,0.2559,0.2636,0.2755,0.2839,0.2912,0.2973,0.2944,0.3099,0.3061,0.2925,0.2913,0.302,0.3005,0.3163,0.3163,0.3163,0.3163,0.3162,0,0.1719,0.1767,0.1896,0.1927,0.2013,0.2107,0.2218,0.2317,0.2464,0.2554,0.2687,0.2766,0.2896,0.2989,0.3022,0.3022,0.3151,0.2949,0.2936,0.3043,0.3029,0.3032,0.3015,0.3167,0.3166,0.3165,0.3165,0,0.1642,0.1727,0.1797,0.1937,0.1991,0.2058,0.2227,0.2291,0.2461,0.2585,0.2648,0.2821,0.2935,0.3029,0.315,0.307,0.3097,0.3067,0.3185,0.3175,0.2854,0.284,0.2922,0.2917,0.2912,0.2908,0.2905,0,0.1604,0.1635,0.179,0.1827,0.1899,0.2017,0.2084,0.2271,0.2344,0.2588,0.2627,0.2811,0.2901,0.2916,0.3027,0.3076,0.3041,0.3029,0.2923,0.2853,0.2834,0.2826,0.2818,0.2897,0.2896,0.2895,0.2893,0,0.1518,0.1589,0.1644,0.1731,0.1814,0.1883,0.201,0.2058,0.2264,0.2452,0.2547,0.2617,0.2733,0.2804,0.2863,0.289,0.3016,0.2979,0.2987,0.2888,0.2824,0.2807,0.2805,0.2877,0.2879,0.2881,0.2882,0,0.1453,0.1459,0.1538,0.1603,0.1686,0.1705,0.18,0.1893,0.2004,0.2292,0.2322,0.2518,0.2701,0.2711,0.277,0.2775,0.273,0.2627,0.2653,0.2673,0.2533,0.2411,0.234,0,0,0,0,0,0.1363,0.1347,0.1393,0.1444,0.1517,0.1568,0.1716,0.1815,0.2049,0.2056,0.2186,0.2288,0.2379,0.2487,0.2444,0.2652,0.2728,0.2589,0.2618,0.2785,0.2804,0.2661,0,0,0,0,0,0,0.1291,0.1318,0.1337,0.1295,0.13,0.1359,0.1441,0.1597,0.1625,0.1877,0.1944,0.214,0.2266,0.2377,0.2397,0.2429,0.2398,0.2729,0.2723,0.2775,0.2792,0.2807,0.2667,0,0,0,0,0]},{"header":{"parameterUnit":"m.s-1","parameterCategory":2,"la1":30.2991,"la2":30.254,"lo1":-89.0895,"lo2":-89.0444,"dy":0.0017,"dx":0.0017,"nx":28,"ny":28,"refTime":"2025-08-05T03:00:00:Z","depth":"4","parameterNumber":3,"parameterNumberName":"V-component_of_CURRENTS"},"data":[0,0,0,0,0,0,0,0,0,0,0,0,0,0,0,0,0,0,0,0,0,0,0,0,0,0,0,0,0,0,0,0,0,0,0,0,0,0,0,0,0,0,0,0,0,0,0,0,0,0,0,0,0,0,0,0,0,0,0.0112,0.0111,0,0.0067,0.0066,0.0065,0.0025,0.0025,0.0024,0.0024,-0.0037,-0.0038,-0.0039,0,0,0,0,0,0,0,0,0,0,0,0,0,0.0112,0.0112,0.0112,0.0111,0.0111,0.0067,0.0066,0.0065,0.0025,0.0024,0.0024,0.0024,-0.0036,-0.0038,-0.004,0,0,0,0,0,0,0,0,0,0,0,0,0,0.0093,0.0113,0.0112,0.0087,0.0084,0.0067,0.0066,0.0065,0.0025,0.0024,0.0024,0.0024,-0.0036,-0.0038,-0.004,-0.0042,0,0,-0.0046,-0.0047,0,0,0,0,0,0,0,0,0.0094,0.0093,0.0091,0.0088,0.0085,0.0052,0.0044,0.0029,0.0025,0.0046,0.0024,0.0023,-0.0007,-0.0012,-0.0021,-0.0044,-0.0047,-0.0046,-0.0047,-0.0048,-0.0048,0,0,0,0,0,0,0,0.0095,0.0094,0.0092,0.009,0.0087,0.006,0.0057,0.004,0.0021,0.0044,0.0041,0.0039,-0.0009,-0.0019,-0.0023,-0.0048,-0.0046,-0.0048,-0.0049,-0.005,-0.0084,-0.0084,0,0,0,0,0,0,0.0107,0.0096,0.0094,0.0091,0.009,0.0061,0.0057,0.0062,0.0022,0.0016,0.0039,0.0037,-0.0015,-0.002,-0.0025,-0.0019,-0.0048,-0.005,-0.0051,-0.0084,-0.0084,-0.0084,0,0,0,0,0,0,0.0108,0.0108,0.0096,0.0093,0.009,0.0062,0.0067,0.0062,0.0053,0.0019,0.0012,0.0037,-0.0016,-0.0022,-0.0036,-0.0022,-0.0051,-0.0052,-0.0085,-0.0084,-0.0084,-0.0014,0,0,0,0,0,0,0.0108,0.0108,0.0114,0.0094,0.009,0.0095,0.0068,0.0061,0.0053,0.005,0.0015,0.0008,-0.0017,-0.0033,-0.0038,-0.0025,-0.0054,-0.0085,-0.0084,-0.0084,-0.0017,-0.0012,-0.0007,0,0,0,0,0,0.0108,0.0125,0.0114,0.0114,0.01,0.0096,0.0092,0.0069,0.0054,0.0058,0.003,0.001,-0.0033,-0.0034,-0.004,-0.0028,-0.0085,-0.0085,-0.0084,-0.0019,-0.0013,-0.0007,0,0,0,0,0,0,0.0128,0.0122,0.011,0.0124,0.0113,0.009,0.0091,0.0075,0.0056,0.0052,0.0015,0.0007,-0.0001,-0.0025,-0.0024,-0.0038,-0.0064,-0.0064,-0.0012,-0.0006,-0.0002,0.0009,-0.0056,0,0,0,0,0,0.0135,0.0147,0.0132,0.0142,0.014,0.0116,0.011,0.0097,0.0079,0.007,0.0045,0.0017,-0.0003,-0.0013,-0.0034,-0.0038,-0.008,-0.0037,-0.0032,-0.0027,-0.0024,-0.0074,-0.0073,-0.0082,-0.0082,-0.0082,0,0,0.0147,0.0144,0.015,0.0147,0.0136,0.0146,0.0111,0.0112,0.0118,0.0067,0.0066,0.0035,-0.0001,-0.0007,-0.0013,-0.0025,-0.0049,-0.0027,-0.0022,-0.0021,-0.0073,-0.0073,-0.0072,-0.0082,-0.0082,-0.0082,0,0,0.0179,0.0172,0.0192,0.0189,0.018,0.017,0.0174,0.0156,0.0145,0.014,0.0103,0.008,0.0053,0.0029,0.0013,0.0031,-0.0021,0.0024,0.006,0.0012,0.0012,0.0012,-0.0046,-0.0052,0.0027,0.0028,0.0028,0,0.019,0.0213,0.0197,0.0212,0.0219,0.0187,0.0211,0.0197,0.0176,0.0169,0.0149,0.0097,0.007,0.0055,0.0061,0.0044,0.0002,0.0044,0.0019,0.0018,0.0016,-0.0043,-0.0051,0.0031,0.0031,0.003,0.003,0,0.0235,0.0251,0.0264,0.0277,0.0282,0.0297,0.0282,0.0278,0.0259,0.0239,0.0215,0.0168,0.0137,0.0124,0.01,0.008,0.0048,0.0031,0.0007,0.0021,-0.0042,-0.0051,0.0036,0.0035,0.0034,0.0033,0,0,0.0265,0.0292,0.0295,0.0315,0.0319,0.0331,0.0343,0.0342,0.0348,0.0308,0.0303,0.0259,0.0222,0.02,0.0159,0.0117,0.0071,0.0077,0.0072,0.0025,-0.0048,-0.0054,-0.0065,0.0048,0.0047,0.0046,-0.0091,0,0.0302,0.0353,0.0356,0.0405,0.0432,0.0415,0.0431,0.0424,0.0403,0.0387,0.0322,0.0304,0.0254,0.0241,0.019,0.0103,0.0051,0.0109,-0.006,-0.0065,-0.0068,-0.0074,0.0043,-0.0098,-0.01,-0.0101,-0.0102,0,0.0341,0.0373,0.0432,0.0474,0.0484,0.051,0.053,0.054,0.0506,0.0486,0.0442,0.0387,0.0322,0.0279,0.0126,0.0164,0.0067,-0.0009,-0.0017,-0.0051,-0.0087,-0.0116,-0.0119,-0.0118,-0.0117,-0.0116,-0.0115,0,0.037,0.0424,0.0478,0.0492,0.0533,0.0556,0.0578,0.0569,0.0589,0.0549,0.0546,0.0448,0.0403,0.0272,0.0115,0.0119,-0.0066,-0.0081,-0.0184,-0.0187,-0.0172,-0.017,-0.0192,-0.0192,-0.0191,-0.0191,-0.0191,0,0.0406,0.0447,0.0498,0.0527,0.0595,0.0605,0.0663,0.0661,0.0667,0.0693,0.0603,0.0583,0.04,0.0273,0.0126,-0.0059,-0.0063,-0.0183,-0.022,-0.014,-0.0134,-0.0179,-0.0176,-0.0196,-0.0195,-0.0194,-0.0193,0,0.0425,0.0456,0.0523,0.0584,0.0612,0.0661,0.0738,0.0776,0.0768,0.0796,0.0789,0.0677,0.051,0.0313,0.0086,-0.0036,-0.0214,-0.028,-0.0189,-0.0219,-0.031,-0.0301,-0.0408,-0.0409,-0.041,-0.0411,-0.0412,0,0.0438,0.0474,0.0568,0.0618,0.0652,0.073,0.079,0.0826,0.087,0.0852,0.0867,0.0721,0.0619,0.0293,0.0078,-0.0219,-0.0256,-0.0356,-0.0325,-0.0305,-0.0331,-0.0321,-0.0311,-0.0413,-0.0414,-0.0414,-0.0414,0,0.0464,0.0497,0.0556,0.0663,0.0744,0.0836,0.092,0.0961,0.0996,0.0989,0.0932,0.0761,0.0564,0.0303,0.0065,-0.0143,-0.0293,-0.0368,-0.0367,-0.0339,-0.0313,-0.0336,-0.0325,-0.0418,-0.0418,-0.0417,-0.0417,0,0.0482,0.0528,0.0611,0.0706,0.0811,0.0911,0.0953,0.1006,0.1049,0.103,0.1002,0.0791,0.0664,0.034,0.0125,-0.0086,-0.0136,-0.0197,-0.0206,-0.0205,-0.0103,-0.0038,-0.0092,0,0,0,0,0,0.05,0.0559,0.0648,0.0762,0.0866,0.0933,0.1031,0.1064,0.1096,0.1074,0.1045,0.0865,0.054,0.0392,0.0182,0.0091,-0.0184,-0.0164,-0.0261,-0.0439,-0.0435,-0.035,0,0,0,0,0,0,0.0516,0.06,0.0651,0.0793,0.0874,0.1002,0.1067,0.109,0.1075,0.1064,0.0895,0.0813,0.0495,0.0664,0.0178,0.0111,0.0021,-0.0317,-0.0321,-0.0442,-0.0438,-0.0434,-0.0345,0,0,0,0,0]}]]